Location: Barcelona
(41.3851°N, 2.1734°E)
Time: 09:11:28
(UTC+01:00)

ISS - Visible Passes

Search period start: 18 November 2019 00:00
Search period end: 28 November 2019 00:00
Orbit: 412 x 421 km, 51.6° (Epoch: 18 November)

Date Brightness Start Highest point End Pass type
(mag) Time Alt. Az. Time Alt. Az. Time Alt. Az.
19 Nov -1.2 19:14:39 10° S 19:15:08 12° SSE 19:15:08 12° SSE visible
20 Nov -0.7 20:01:34 10° SW 20:02:06 14° SW 20:02:06 14° SW visible
21 Nov -3.0 19:13:20 10° SW 19:16:02 42° S 19:16:02 42° S visible
22 Nov -2.5 18:25:23 10° SSW 18:28:15 27° SE 18:29:52 18° E visible
22 Nov -0.9 20:01:43 10° W 20:02:47 18° W 20:02:47 18° W visible
23 Nov -3.6 19:13:04 10° WSW 19:16:24 62° NNW 19:16:31 61° NNW visible
24 Nov -3.8 18:24:37 10° SW 18:27:57 78° SE 18:30:10 20° ENE visible
24 Nov -0.7 20:02:18 10° WNW 20:03:05 14° WNW 20:03:05 14° WNW visible
25 Nov -2.3 19:13:24 10° W 19:16:23 29° NNW 19:16:40 28° NNW visible
26 Nov -2.8 18:24:36 10° WSW 18:27:48 41° NNW 18:30:11 16° NE visible
26 Nov -0.5 20:03:03 10° NW 20:03:05 10° NW 20:03:05 10° NW visible
27 Nov -1.7 19:14:04 10° WNW 19:16:30 18° NNW 19:16:34 18° NNW visible
